Regional Weather Roundup
Issued by NWS

Home | Current Version | Previous Version | Graphics & Text | Print | Product List | Glossary On
Versions: 1 2 3 4 5 6 7 8 9 10 11 12 13 14 15 16 17 18 19 20 21 22 23 24 25 26 27
000
ASUS45 KCYS 271610
RWRWY

WYOMING REGIONAL WEATHER ROUNDUP
NATIONAL WEATHER SERVICE CHEYENNE WY
1000 AM MDT THU APR 27 2017

NOTE:  "FAIR" INDICATES FEW OR NO CLOUDS BELOW 12,000 FEET
WITH NO SIGNIFICANT WEATHER AND/OR OBSTRUCTIONS TO VISIBILITY.

WYZ001-271700-
YELLOWSTONE NATIONAL PARK

CITY           SKY/WX    TMP DP  RH WIND       PRES   REMARKS
LK YELLOWSTONE NOT AVBL
W YELLOWSTONE  NOT AVBL

$$
WYZ002>013-054>058-071-098>099-271700-
NORTHERN WYOMING

CITY           SKY/WX    TMP DP  RH WIND       PRES   REMARKS
JACKSON        LGT SNOW  30  30 100 S6        29.64R WCI  24
CODY           CLOUDY    40  34  79 N10       29.60R WCI  33
GREYBULL       CLOUDY    43  37  79 NW18      29.54S
WORLAND        CLOUDY    40  37  89 NW15      29.55S WCI  32
SHERIDAN       MIX PCPN  35  33  92 CALM      29.58S FOG
BUFFALO        LGT RAIN  36  32  85 N20       29.55S WCI  25
GILLETTE       CLOUDY    38  35  89 SE10      29.56S WCI  31
HULETT         CLOUDY    41  32  70 NE8       29.59S
NEWCASTLE      PTSUNNY   43  32  65 S17G24    29.59S

$$
WYZ014>020-022>026-101>103-271700-
CENTRAL WYOMING

CITY           SKY/WX    TMP DP  RH WIND       PRES   REMARKS
BIG PINEY      CLOUDY    37  26  64 N14       29.61S WCI  28
PINEDALE       LGT SNOW  32  30  93 NW16      29.62R WCI  21
DUBOIS         CLOUDY    34  28  80 NW10      29.54R HAZE    WCI  26
LANDER         CLOUDY    43  35  73 N9        29.51S
RIVERTON       CLOUDY    41  33  73 N18       29.52S
CASPER         LGT RAIN  43  39  86 N17       29.51R
DOUGLAS        CLOUDY    45  40  82 E15       29.52F

$$
WYZ021-027>030-104>119-271700-
SOUTHERN WYOMING

CITY           SKY/WX    TMP DP  RH WIND       PRES   REMARKS
EVANSTON       FLURRIES  32  26  78 W23G30    29.74R WCI  19
FORT BRIDGER   PTSUNNY   34  26  72 W31G39    29.73S WCI  20
ROCK SPRINGS   PTSUNNY   36  25  64 W35G44    29.64S WCI  22
DIXON            N/A     40  27  60 W20G29    29.67F WCI  30
RAWLINS        LGT SNOW  34  29  82 W22G31    29.58S WCI  22
SARATOGA       CLOUDY    36  28  75 W18G31    29.61R WCI  25
LARAMIE        FAIR      40  34  79 CALM      29.55F
CHEYENNE       LGT RAIN  39  36  89 E8        29.56F WCI  33
TORRINGTON     LGT RAIN  42  40  92 S3        29.55F
PINE BLUFFS    LGT RAIN  41  37  87 NE3       29.58F

$$




USA.gov is the U.S. government's official web portal to all federal, state and local government web resources and services.